Probability
0 0 0 0 0 0 0 0 0 0 0 0 0 0 0 0 0 0 0 0 0 0 0 0 0 0 0 0 0 0 0 0 0 0 0 0 0 0 0 0 0 0 0
0 0 0 0 0 0 0 0 0 0 0 0 0 0 0 0 0 0 0 0 0 0 0 0 0 0 0 0 0 0 0 0 0 0 0 0 0 0 0 0 0 0 0
0 0 0 0 0 0 0 0 0 0 0 0 0 0 0 0 0 0 0 0 0 0 0 0 0 0 0 0 0 0 0 0 0 0 0 0 0 0 0 0 0 0 0
0 0 0 0 0 0 0 0 0 0 0 0 0 0 0 0 0 0 0 0 0 0 0 0 0 0 0 0 0 0 0 0 0 0 0 0 0 0 0 0 0 0 0
0 0 0 0 0 0 0 0 0 0 0 0 0 0 0 0 0 0 0 0 0 0 0 0 0 0 0 0 0 0 0 0 0 0 0 0 0 0 0 0 0 0 0
0 0 0 0 0 0 0 0 0 0 0 0 0 0 0 0 0 0 0 0 0 0 0 0 0 0 0 0 0 0 0 0 0 0 0 0 0 0 0 0 0 0 0
0 0 0 0 0 0 0 0 0 0 0 0 0 0 0 0 0 0 0 0 0 0 0 0 0 0 0 0 0 0 0 0 0 0 0 0 0 0 0 0 0 0 0
0 0 0 0 0 0 0 0 0 0 0 0 0 0 0 0 0 0 0 0 0 0 0 0 0 0 0 0 0 0 0 0 0 0 0 0 0 0 0 0 0 0 0
0 0 0 0 0 0 0 0 0 0 0 0 0 0 0 0 0 0 0 0 0 0 0 0 0 0 0 0 0 0 0 0 0 0 0 0 0 0 0 0 0 0 0
0 0 0 0 0 0 0 0 0 0 0 0 0 0 0 0 0 0 0 0 0 0 0 0 0 0 0 0 0 0 0 0 0 0 0 0 0 0 0 0 0 0 0
0 0 0 0 0 0 0 0 0 0 0 0 0 0 0 0 0 0 0 0 0 0 0 0 0 0 0 0 0 0 0 0 0 0 0 0 0 0 0 0 0 0 0
0 0 0 0 0 0 0 0 0 0 0 0 0 0 0 0 0 0 0 0 0 0 0 0 0 0 0 0 0 0 0 0 0 0 0 0 0 0 0 0 0 0 0
0 0 0 0 0 0 0 0 0 0 0 0 0 0 0 0 0 0 0 0 0 0 0 0 0 0 0 0 0 0 0 0 0 0 0 0 0 0 0 0 0 0 0
0 0 0 0 0 0 0 0 0 0 0 0 0 0 0 0 0 0 0 0 0 0 0 0 0 0 0 0 0 0 0 0 0 0 0 0 0 0 0 0 0 0 0
0 0 0 0 0 0 0 0 0 0 0 0 0 0 0 0 0 0 0 0 0 0 0 0 0 0 0 0 0 0 0 0 0 0 0 0 0 0 0 0 0 0 0
0 0 0 0 0 0 0 0 0 0 0 0 0 0 0 0 0 0 0 0 0 0 0 0 0 0 0 0 0 0 0 0 0 0 0 0 0 0 0 0 0 0 0
0 0 0 0 0 0 0 0 0 0 0 0 0 0 0 0 0 0 0 0 0 0 0 0 0 0 0 0 0 0 0 0 0 0 0 0 0 0 0 0 0 0 0
0 0 0 0 0 0 0 0 0 0 0 0 0 0 0 0 0 0 0 0 0 0 0 0 0 0 0 0 0 0 0 0 0 0 0 0 0 0 0 0 0 0 0
0 0 0 0 0 0 0 0 0 0 0 0 0 0 0 0 0 0 0 0 0 0 0 0 0 0 0 0 0 0 0 0 0 0 0 0 0 0 0 0 0 0 0
0 0 0 0 0 0 0 0 0 0 0 0 0 0 0 0 0 0 0 0 0 0 0 0 0 0 0 0 0 0 0 0 0 0 0 0 0 0 0 0 0 0 0
0 0 0 0 0 0 0 0 0 0 0 0 0 0 0 0 0 0 0 0 0 0 0 0 0 0 0 0 0 0 0 0 0 0 0 0 0 0 0 0 0 0 0
0 0 0 0 0 0 0 0 0 0 0 0 0 0 0 0 0 0 0 0 0 0 0 0 0 0 0 0 0 0 0 0 0 0 0 0 0 0 0 0 0 0 0
0 0 0 0 0 0 0 0 0 0 0 0 0 0 0 0 0 0 0 0 0 0 0 0 0 0 0 0 0 0 0 0 0 0 0 0 0 0 0 0 0 0 0
0 0 0 0 0 0 0 0 0 0 0 0 0 0 0 0 0 0 0 0 0 0 0 0 0 0 0 0 0 0 0 0 0 0 0 0 0 0 0 0 0 0 0
0 0 0 0 0 0 0 0 0 0 0 0 0 0 0 0 0 0 0 0 0 0 0 0 0 0 0 0 0 0 0 0 0 0 0 0 0 0 0 0 0 0 0
0 0 0 0 0 0 0 0 0 0 0 0 0 0 0 0 0 0 0 0 0 0 0 0 0 0 0 0 0 0 0 0 0 0 0 0 0 0 0 0 0 0 0
Height
5695 5690 5685 5679 5673 5667 5661 5655 5649 5643 5637 5631 5625 5619 5613 5608 5602 5597 5593 5589 5584 5580 5576 5571 5568 5563 5559 5555 5551 5548 5545 5541 5540 5543 5537 5533 5529 5526 5522 5520 5519 5517 5515
5682 5676 5670 5664 5658 5651 5645 5638 5631 5625 5618 5612 5606 5600 5594 5589 5583 5578 5574 5569 5565 5561 5556 5551 5548 5543 5540 5536 5532 5529 5526 5522 5520 5521 5519 5514 5510 5507 5504 5502 5500 5498 5497
5668 5661 5655 5648 5641 5634 5627 5620 5613 5606 5599 5592 5586 5580 5574 5568 5563 5558 5553 5549 5545 5541 5536 5531 5528 5523 5520 5516 5512 5509 5506 5503 5500 5500 5499 5495 5492 5488 5485 5483 5481 5479 5478
5652 5645 5637 5630 5622 5615 5607 5600 5592 5585 5578 5571 5565 5558 5553 5547 5541 5536 5531 5528 5524 5520 5516 5511 5507 5502 5499 5495 5492 5490 5486 5483 5481 5479 5479 5477 5473 5469 5466 5465 5462 5460 5459
5635 5627 5619 5611 5603 5594 5586 5579 5571 5563 5556 5549 5542 5536 5530 5524 5519 5514 5510 5506 5503 5500 5496 5491 5487 5482 5478 5475 5472 5470 5467 5464 5461 5459 5459 5457 5454 5450 5447 5444 5443 5441 5439
5616 5607 5598 5590 5581 5572 5564 5556 5548 5540 5533 5526 5519 5513 5508 5502 5496 5491 5488 5485 5482 5479 5475 5471 5466 5462 5458 5455 5452 5449 5447 5444 5442 5440 5439 5437 5435 5430 5426 5424 5423 5422 5422
5595 5586 5576 5567 5559 5550 5541 5533 5525 5517 5510 5503 5497 5490 5485 5480 5474 5470 5465 5463 5461 5458 5454 5450 5446 5442 5438 5435 5432 5429 5427 5425 5423 5421 5419 5418 5414 5411 5407 5405 5403 5402 5402
5573 5563 5553 5544 5535 5527 5518 5510 5502 5495 5488 5482 5476 5469 5464 5459 5453 5449 5445 5442 5440 5437 5433 5429 5425 5422 5418 5414 5412 5410 5408 5406 5403 5400 5400 5399 5395 5391 5388 5386 5384 5383 5383
5551 5541 5531 5521 5513 5505 5497 5489 5481 5474 5468 5462 5456 5450 5445 5440 5434 5430 5426 5423 5420 5416 5412 5409 5405 5402 5399 5395 5393 5392 5390 5388 5384 5381 5380 5378 5376 5373 5369 5367 5365 5364 5364
5530 5520 5510 5501 5492 5484 5476 5469 5462 5455 5449 5443 5438 5432 5426 5422 5417 5412 5407 5404 5401 5397 5393 5389 5385 5383 5380 5377 5375 5374 5372 5369 5366 5363 5361 5360 5357 5355 5351 5349 5347 5345 5344
5510 5501 5491 5482 5473 5465 5458 5451 5443 5437 5431 5426 5421 5416 5410 5404 5400 5395 5390 5386 5382 5379 5375 5372 5368 5365 5363 5360 5357 5356 5353 5350 5348 5346 5344 5342 5340 5337 5334 5331 5330 5327 5326
5492 5483 5474 5465 5456 5447 5440 5434 5427 5420 5415 5410 5405 5400 5394 5388 5383 5379 5374 5369 5365 5362 5359 5356 5353 5349 5346 5343 5341 5339 5336 5333 5331 5329 5328 5326 5323 5321 5318 5315 5312 5310 5308
5475 5466 5457 5449 5441 5432 5425 5418 5412 5406 5400 5395 5390 5385 5381 5375 5369 5363 5359 5355 5350 5346 5343 5340 5337 5333 5330 5327 5325 5322 5319 5316 5315 5313 5312 5310 5307 5304 5301 5299 5296 5293 5292
5458 5450 5442 5434 5427 5419 5411 5404 5398 5392 5386 5381 5376 5371 5367 5361 5355 5350 5345 5340 5336 5331 5328 5324 5321 5317 5314 5311 5308 5306 5303 5301 5299 5298 5297 5294 5292 5289 5287 5284 5282 5279 5277
5444 5436 5428 5420 5413 5406 5400 5392 5386 5380 5372 5367 5362 5357 5352 5348 5342 5337 5331 5327 5322 5317 5313 5309 5305 5302 5298 5295 5293 5290 5288 5286 5285 5283 5281 5280 5277 5275 5273 5270 5268 5265 5263
5430 5422 5415 5408 5401 5394 5388 5382 5375 5368 5362 5355 5349 5344 5339 5334 5329 5323 5318 5313 5308 5304 5299 5296 5292 5288 5284 5281 5279 5277 5275 5272 5271 5269 5268 5266 5264 5262 5260 5257 5254 5252 5249
5417 5410 5403 5396 5389 5383 5376 5370 5365 5360 5352 5345 5339 5333 5327 5322 5316 5311 5306 5301 5296 5291 5287 5283 5279 5275 5272 5269 5266 5264 5262 5260 5258 5256 5255 5253 5251 5249 5247 5244 5241 5238 5235
5406 5398 5391 5385 5378 5372 5365 5359 5353 5348 5343 5337 5330 5323 5317 5311 5305 5300 5294 5289 5285 5280 5276 5272 5268 5265 5261 5258 5256 5253 5251 5248 5246 5245 5243 5241 5238 5236 5234 5231 5229 5225 5222
5395 5388 5382 5375 5369 5362 5356 5349 5343 5337 5331 5326 5320 5314 5307 5301 5296 5290 5284 5280 5275 5271 5267 5263 5259 5255 5252 5249 5246 5243 5241 5238 5236 5234 5231 5229 5227 5225 5222 5220 5217 5214 5211
5386 5379 5372 5365 5359 5352 5346 5340 5333 5327 5322 5316 5310 5304 5299 5293 5287 5282 5276 5271 5266 5262 5258 5254 5250 5247 5244 5240 5238 5235 5232 5229 5226 5223 5221 5218 5216 5214 5211 5209 5206 5203 5200
5376 5370 5363 5356 5349 5343 5337 5330 5324 5318 5312 5307 5301 5295 5289 5284 5279 5273 5268 5263 5258 5254 5250 5246 5243 5239 5236 5232 5229 5226 5223 5220 5217 5214 5211 5209 5206 5204 5201 5198 5195 5192 5189
5366 5360 5354 5347 5341 5334 5328 5322 5315 5310 5304 5298 5293 5287 5281 5276 5270 5265 5260 5255 5250 5246 5242 5239 5235 5232 5228 5225 5221 5217 5214 5211 5208 5206 5203 5200 5197 5195 5192 5189 5186 5182 5179
5357 5351 5345 5338 5332 5326 5319 5313 5307 5302 5296 5290 5284 5279 5274 5268 5263 5258 5253 5248 5244 5240 5236 5232 5228 5225 5221 5217 5213 5210 5206 5203 5200 5197 5195 5192 5189 5186 5183 5179 5176 5173 5169
5348 5342 5336 5330 5324 5318 5312 5306 5300 5294 5288 5283 5277 5272 5267 5262 5257 5252 5247 5242 5238 5234 5230 5226 5222 5218 5214 5210 5206 5202 5199 5196 5193 5190 5187 5184 5181 5178 5174 5171 5167 5163 5159
5340 5334 5328 5322 5316 5311 5305 5299 5293 5287 5281 5276 5271 5266 5261 5256 5251 5246 5241 5237 5232 5228 5224 5219 5215 5211 5207 5203 5199 5195 5192 5188 5185 5182 5179 5176 5173 5169 5166 5162 5158 5154 5150
5332 5327 5321 5315 5309 5303 5298 5292 5286 5280 5275 5270 5265 5260 5255 5250 5246 5241 5236 5232 5227 5222 5218 5213 5209 5204 5200 5196 5192 5188 5184 5181 5178 5174 5171 5168 5164 5161 5158 5154 5151 5147 5143
Wind_Speed
46 48 50 52 53 55 56 58 59 60 61 62 63 64 64 65 65 66 65 66 66 66 66 66 66 66 66 65 66 66 66 66 65 62 62 62 63 63 62 62 61 61 60
52 54 55 57 59 60 61 62 63 64 64 65 65 66 66 66 66 67 67 67 66 66 67 67 66 67 66 66 66 66 66 66 65 63 62 63 62 63 62 62 62 62 61
57 59 61 62 63 64 65 66 66 67 67 67 68 68 68 68 68 68 68 68 68 67 67 67 67 67 66 66 66 65 64 65 64 63 62 62 62 63 63 62 62 62 61
63 64 66 67 68 69 69 70 70 70 69 69 70 69 69 70 70 69 69 69 68 67 66 66 65 65 65 65 65 64 64 64 64 63 62 62 62 63 63 62 62 62 62
68 70 71 72 73 73 73 73 73 72 72 71 71 71 71 70 70 70 70 69 67 66 66 65 64 64 64 64 64 64 64 64 63 63 62 62 62 62 62 62 62 62 62
73 75 76 77 77 76 76 75 74 73 72 71 71 71 70 69 69 69 69 67 66 66 64 64 63 64 63 64 64 64 64 64 63 62 61 61 61 61 62 62 62 63 62
78 79 80 79 78 77 76 74 73 72 71 70 69 68 68 67 67 66 66 65 64 63 62 62 62 62 63 63 63 64 63 62 62 61 60 59 60 60 61 62 62 62 61
81 81 80 78 77 75 73 72 70 69 68 67 65 65 64 64 64 63 63 62 61 60 60 60 61 61 61 61 61 61 60 60 60 60 59 59 59 59 60 60 61 61 60
81 79 77 75 73 71 69 68 66 65 63 63 62 61 60 59 59 59 60 59 58 58 58 58 58 57 57 58 58 57 57 57 58 58 59 58 57 57 58 59 59 59 58
78 76 73 71 69 67 65 63 62 61 60 59 58 57 57 56 56 56 57 56 56 55 55 54 54 54 54 55 55 55 55 55 56 56 57 56 56 56 57 57 57 57 56
74 71 69 66 64 63 61 60 59 57 56 55 53 53 53 53 53 53 54 53 52 51 50 49 50 51 52 53 54 53 52 52 52 53 53 53 54 53 54 55 55 55 55
70 66 64 61 60 59 58 56 55 54 53 52 50 50 50 50 50 50 49 49 49 48 47 48 49 50 50 50 50 50 49 50 50 50 49 49 50 51 52 52 52 53 53
65 62 59 57 56 56 54 53 51 51 50 49 48 47 46 47 47 47 47 47 47 47 47 47 48 48 49 49 49 48 48 48 48 47 46 46 48 49 49 49 50 50 50
61 57 55 54 52 51 50 49 48 48 47 46 46 46 45 45 44 44 45 45 45 46 46 46 46 46 46 46 46 46 45 45 44 45 45 45 46 46 46 47 47 48 47
56 54 51 50 49 48 47 46 46 46 46 46 45 45 44 42 42 43 43 43 43 43 43 42 42 43 43 43 42 42 42 42 43 43 43 42 43 44 44 44 45 45 45
53 50 49 47 46 45 44 43 43 44 44 44 44 44 42 41 41 41 41 40 40 40 40 40 40 39 39 39 39 39 40 40 41 41 41 41 41 41 42 43 44 44 44
50 48 47 45 44 43 43 42 40 40 41 41 41 41 41 40 40 39 39 38 38 37 37 37 36 35 35 35 35 36 36 37 37 38 39 39 39 39 40 41 42 43 43
48 47 45 43 42 42 42 41 41 39 38 38 39 40 39 38 37 37 36 35 34 34 34 33 33 33 32 32 32 33 33 34 35 35 36 37 37 38 38 39 39 39 38
45 44 43 42 42 42 41 41 40 39 39 38 37 37 37 36 36 35 34 33 32 32 32 31 30 30 29 29 30 30 30 31 32 33 34 34 35 35 35 35 36 35 35
44 43 42 41 41 41 41 40 39 39 38 37 35 35 34 34 33 33 32 32 32 31 30 29 28 28 28 28 28 29 29 30 30 31 31 31 32 32 32 33 33 33 34
43 42 41 41 41 40 40 39 38 37 36 34 34 33 33 33 32 31 31 31 30 29 28 27 27 27 27 28 28 28 28 28 28 28 28 29 30 30 31 31 32 32 33
42 41 40 39 39 39 38 37 36 35 35 33 33 33 32 32 31 30 30 29 27 26 25 26 26 26 27 27 27 27 27 26 26 26 27 28 29 29 29 30 30 31 32
41 40 39 38 38 37 36 36 35 35 33 32 31 31 31 30 30 29 28 27 26 25 25 25 26 26 26 26 26 25 25 25 25 25 25 26 26 27 28 28 29 30 31
40 39 38 37 36 35 35 35 34 33 32 31 30 30 29 28 28 27 26 25 24 24 24 25 25 26 26 26 25 25 24 24 23 24 24 24 25 26 27 28 28 29 30
38 37 36 35 34 34 34 34 33 32 30 29 28 28 27 27 26 25 24 24 23 23 24 25 25 25 25 25 25 24 24 23 24 24 25 25 26 26 26 26 27 27 28
35 34 33 34 34 33 33 32 31 29 28 27 27 26 26 26 25 24 23 23 23 23 24 25 25 25 26 25 25 25 24 24 24 25 26 26 26 25 25 24 25 26 26
Wind_Direction
300 299 298 297 295 294 293 292 291 290 288 287 286 286 285 283 282 281 281 280 280 280 280 280 280 279 278 278 278 279 279 279 279 279 279 279 279 279 278 278 277 277 277
300 299 298 297 296 295 294 293 292 290 289 288 287 286 284 283 282 282 281 280 280 280 280 280 279 278 278 278 278 278 279 278 279 278 278 278 278 278 277 278 277 277 276
300 299 298 297 296 295 294 293 292 291 289 288 287 286 285 283 282 281 281 280 280 280 280 279 279 278 278 278 278 278 278 279 278 278 277 277 277 277 277 277 277 277 276
299 299 298 297 296 295 294 293 292 291 290 288 287 286 284 283 282 281 280 280 280 279 279 279 279 278 278 277 277 277 278 278 278 278 277 276 276 276 276 276 275 276 276
299 299 298 297 297 296 295 294 293 292 290 288 286 285 284 282 282 281 281 280 280 279 279 279 279 278 278 277 277 277 277 278 278 277 277 276 276 276 276 275 275 275 275
300 300 299 299 298 297 296 294 293 291 289 288 286 285 283 283 282 281 281 280 280 280 279 278 278 278 278 277 277 277 277 276 277 277 276 276 276 276 275 274 274 274 275
302 301 301 300 299 297 296 294 292 290 289 288 287 286 284 283 283 282 281 281 281 280 279 279 278 278 277 277 276 276 276 276 276 276 276 276 276 275 275 274 274 275 275
303 303 302 301 299 298 296 294 293 291 290 289 288 287 286 286 285 284 283 282 282 281 280 279 278 278 277 276 276 276 276 276 276 275 276 276 275 275 274 275 275 275 276
305 304 303 301 300 298 296 295 294 292 291 290 289 289 288 287 286 286 285 284 283 282 281 279 279 278 277 277 277 277 277 276 276 276 275 275 275 275 274 275 276 276 276
306 305 304 302 301 299 298 297 295 294 293 291 291 290 290 288 288 287 286 285 284 283 282 280 279 278 277 278 278 279 278 276 275 275 275 275 276 276 275 276 276 277 277
306 306 305 303 302 300 299 298 297 295 294 293 293 292 291 290 290 289 288 287 286 284 283 281 279 278 278 279 279 280 279 277 275 275 275 275 276 276 276 277 278 278 278
307 306 305 303 302 301 300 299 298 297 297 296 295 294 294 293 292 291 290 289 287 285 284 282 281 280 280 280 280 280 279 277 276 275 276 276 276 275 276 277 277 277 278
308 307 306 304 304 303 302 301 300 300 299 298 298 297 295 294 293 292 291 290 289 287 285 284 283 282 280 280 280 279 278 277 276 276 276 276 275 276 276 276 277 278 279
308 308 306 306 305 304 303 303 302 301 300 300 299 298 297 296 294 293 293 292 291 290 288 287 285 284 282 281 279 279 278 277 277 276 275 275 275 275 276 277 277 278 280
309 308 307 307 306 306 305 304 304 303 303 302 301 300 299 297 296 295 294 293 292 291 290 290 289 287 284 282 280 279 278 277 276 276 276 275 275 276 277 277 279 280 281
310 310 309 308 307 307 307 306 305 305 305 305 304 303 303 302 300 299 297 297 295 294 292 292 290 289 287 283 280 279 278 277 276 276 276 276 276 277 277 278 280 282 284
312 311 310 309 309 310 309 308 307 306 306 306 306 305 305 304 303 302 301 299 298 296 295 294 293 291 288 285 283 281 279 278 278 278 278 278 278 278 279 281 282 284 285
313 312 311 311 311 311 311 310 309 308 308 307 306 306 306 306 306 305 304 302 300 298 297 297 295 292 290 288 286 284 283 281 280 280 280 279 280 280 281 282 284 285 285
313 312 312 311 312 312 312 311 311 310 310 309 308 308 308 308 308 307 306 304 302 300 299 298 297 295 293 292 291 289 288 286 284 283 282 281 282 282 283 284 285 285 286
313 313 312 312 312 312 312 312 311 311 311 311 310 310 310 310 309 308 307 306 304 302 301 299 299 298 297 295 294 292 291 289 288 286 285 284 284 285 285 286 286 287 289
314 314 313 313 313 313 313 313 313 313 313 312 311 312 313 312 311 310 309 309 307 305 303 302 301 300 299 297 296 295 294 293 291 290 289 288 287 287 287 287 288 289 291
314 315 315 315 315 315 315 315 315 315 314 313 313 313 314 315 314 313 312 311 309 307 305 305 304 303 302 301 299 298 296 294 293 292 291 289 288 289 289 290 290 291 293
314 315 315 316 316 316 316 317 316 316 316 315 315 316 316 316 317 316 315 314 311 309 308 307 306 305 305 304 302 300 298 296 294 293 293 293 293 292 292 291 292 293 295
314 315 316 316 317 317 317 318 317 317 317 317 317 318 318 319 319 319 318 317 315 314 313 312 310 309 308 307 305 303 300 298 296 296 295 295 296 296 296 295 295 296 297
314 315 316 318 318 318 318 319 318 318 318 319 319 320 321 322 322 322 322 321 320 319 318 316 315 312 311 309 307 304 302 299 298 298 297 297 298 299 299 300 299 299 299
314 316 317 319 319 320 320 321 320 320 321 320 321 322 323 324 324 325 325 324 323 321 320 320 318 316 314 312 309 306 303 301 300 299 300 300 300 300 301 302 303 303 303